Location: Vancouver
(49.2500°N, 123.1330°W)
Time: 18:06:11
(UTC-07:00)

Iridium 21 - Visible Passes

Search period start: 24 May 2017 00:00
Search period end: 03 June 2017 00:00
Orbit: 776 x 779 km, 86.4° (Epoch: 24 May)

Date Brightness Start Highest point End Pass type
(mag) Time Alt. Az. Time Alt. Az. Time Alt. Az.
24 May 5.5 01:03:20 39° SSW 01:05:18 77° W 01:10:33 10° N visible
24 May 7.8 02:44:55 10° W 02:46:59 12° WNW 02:49:04 10° NW visible
25 May 5.7 00:29:47 36° SSE 00:31:47 63° E 00:36:57 10° N visible
25 May 7.4 02:10:15 14° WSW 02:13:00 20° WNW 02:16:51 10° NNW visible
25 May 6.4 23:56:14 26° SE 23:58:23 37° E 00:03:10 10° NNE visible
26 May 6.7 01:36:42 22° WSW 01:39:09 33° WNW 01:43:52 10° NNW visible
26 May 7.1 23:22:40 16° ESE 23:25:07 22° ENE 23:29:05 10° NNE visible
27 May 5.9 01:03:08 31° SW 01:05:26 56° W 01:10:35 10° N visible
27 May 7.6 22:49:33 10° E 22:51:58 13° ENE 22:54:22 10° NE visible
28 May 5.5 00:29:34 35° S 00:31:51 87° E 00:37:06 10° N visible
28 May 7.7 02:10:23 10° WSW 02:13:20 15° WNW 02:16:19 10° NNW visible
28 May 5.9 23:55:59 29° SSE 23:58:23 51° E 00:03:26 10° NNE visible
29 May 7.2 01:36:27 15° WSW 01:39:24 25° WNW 01:43:40 10° NNW visible
29 May 6.6 23:22:24 20° SE 23:25:02 30° E 23:29:32 10° NNE visible
30 May 6.4 01:02:52 23° SW 01:05:37 40° W 01:10:33 10° N visible
30 May 7.3 22:48:49 12° ESE 22:51:48 18° ENE 22:55:17 10° NE visible
31 May 5.7 00:29:16 29° SSW 00:31:57 69° W 00:37:11 10° N visible
31 May 8.0 02:12:25 10° WNW 02:13:44 11° WNW 02:15:04 10° NW visible
31 May 7.7 22:17:40 10° E 22:18:42 11° ENE 22:19:44 10° ENE visible
31 May 5.5 23:55:40 28° SSE 23:58:24 71° E 00:03:37 10° N visible
01 Jun 7.6 01:36:09 10° WSW 01:39:43 18° WNW 01:43:18 10° NNW visible
01 Jun 6.2 23:22:04 22° SE 23:24:59 41° E 23:29:52 10° NNE visible
02 Jun 6.9 01:02:31 16° SW 01:05:50 30° WNW 01:10:25 10° NNW visible
02 Jun 6.9 22:48:26 14° SE 22:51:41 25° E 22:55:51 10° NNE visible
